Home > Weather > Dhaka > Past weeks

Flag for Bangladesh Past Weather in Dhaka, Bangladesh — Yesterday and Last 2 Weeks

Now
82 °F

Fog.


Feels Like: 94 °F
Forecast: 82 / 96 °F
Wind: No wind

Location: Agartala Airport

Current Time: Jun 25, 2016 at 7:40:22 AM

Latest Report: Jun 25, 2016 at 6:30 AM


Visibility: 3 mi

Pressure: 29.65 "Hg

Humidity: 94%

Dew Point: 81 °F

Location of DhakaLocation

Past Weather in Dhaka — Graph

°F

Dhaka Temperature Yesterday

Maximum temperature yesterday: 95 °F (at 2:00 PM)
Minimum temperature yesterday: 81 °F (at 6:00 AM)
Average temperature yesterday: 88 °F

High & Low Weather Summary for the Past Weeks

 TemperatureHumidityPressure
High95 °F (Jun 10, 4:00 PM)100% (Jun 11, 12:30 PM)29.74 "Hg (Jun 11, 12:30 PM)
Low73 °F (Jun 11, 2:00 PM)59% (Jun 10, 12:00 PM)29.45 "Hg (Jun 10, 2:30 PM)
Average86 °F79%29.59 "Hg
* Reported Jun 9 8:00 PM — Jun 24 8:00 PM, Dhaka, Weather by CustomWeather, © 2016

Note: Actual official high and low records may vary slightly from our data, if they occured in-between our weather recording intervals... More about our weather records

Advertising

Dhaka Weather History for the Previous 24 Hours

Scroll right to see more
 ConditionsComfort  
Time TempWeatherWind HumidityBarometerVisibility
8:00 PM
Fri, Jun 24
86 °FFog.No wind84%29.56 "Hg3 mi
7:30 PM88 °FFog.No wind79%29.56 "Hg3 mi
7:00 PM88 °FPartly cloudy.No wind79%29.56 "Hg4 mi
6:30 PM90 °FPartly cloudy.No wind75%29.56 "Hg4 mi
6:00 PM90 °FBroken clouds.No wind75%29.53 "Hg4 mi
5:30 PM88 °FBroken clouds.No wind75%29.53 "Hg4 mi
5:00 PM88 °FScattered clouds.No wind75%29.53 "Hg4 mi
4:30 PM90 °FBroken clouds.3 mph67%29.53 "Hg4 mi
4:00 PM90 °FBroken clouds.No wind67%29.56 "Hg4 mi
3:30 PM90 °FBroken clouds.No wind67%29.56 "Hg4 mi
3:00 PM90 °FScattered clouds.3 mph67%29.59 "Hg4 mi
2:30 PM93 °FBroken clouds.6 mph59%29.59 "Hg4 mi
2:00 PM95 °FBroken clouds.12 mph60%29.59 "Hg4 mi
1:30 PM93 °FBroken clouds.9 mph63%29.59 "Hg4 mi
1:00 PM93 °FBroken clouds.7 mph63%29.65 "Hg4 mi
12:00 PM91 °FLight rain. Scattered clouds.7 mph67%29.65 "Hg3 mi
11:00 AM90 °FScattered clouds.7 mph71%29.65 "Hg3 mi
10:30 AM90 °FScattered clouds.6 mph75%29.65 "Hg3 mi
10:00 AM90 °FScattered clouds.6 mph75%29.65 "Hg3 mi
9:30 AM90 °FScattered clouds.6 mph75%29.68 "Hg3 mi
9:00 AM90 °FScattered clouds.6 mph75%29.65 "Hg3 mi
8:30 AM86 °FFog.5 mph79%29.65 "Hg3 mi
8:00 AM84 °FFog.6 mph84%29.65 "Hg3 mi
7:30 AM82 °FFog.6 mph89%29.65 "Hg3 mi
7:00 AM82 °FFog.5 mph89%29.62 "Hg3 mi
Weather by CustomWeather, © 2016

See weather overviewHow to use our weather pages